Wind_Speed
10 12 14 14 11 12 12 9 12 18 13 11 13 14 14 12 7 3 10 12 10 10 10 8 9 9 9 11 15 16 14 12 13 15 16 17 16 18 20 22 21 20 18 18 20 23 25 26 25 22 18 16 17 18 19 20 20 19 17 15 14 16 17 16 14 12 13 14 15 15 14 13 12 12 13 13 13 13 14 15 14 14 15 14 15 15 14
10 12 12 13 11 7 7 12 16 21 23 22 18 16 13 8 8 4 14 18 13 8 8 8 8 10 11 10 11 15 16 14 13 13 12 14 16 16 16 18 18 17 16 15 15 16 20 25 27 26 22 18 16 16 18 19 20 19 17 15 14 14 15 15 15 16 16 15 15 17 18 17 16 14 13 13 13 13 14 15 15 14 15 15 15 15 15
7 10 13 11 7 4 8 14 18 19 21 22 20 14 7 10 12 8 12 16 12 8 8 10 10 10 11 11 10 11 11 11 13 16 14 14 17 16 16 17 17 16 17 17 17 16 17 19 22 22 20 18 15 14 15 16 18 19 20 20 19 17 15 15 16 18 19 18 18 19 18 19 19 18 17 16 14 13 13 14 15 14 14 14 14 14 14
4 8 13 10 4 3 6 11 15 16 15 14 14 14 13 13 12 10 9 9 6 7 9 10 9 8 8 9 7 6 7 5 6 14 18 15 15 16 14 15 17 16 16 17 17 17 17 18 18 17 16 15 14 14 13 14 14 15 17 20 22 22 21 19 17 18 19 20 21 21 20 20 20 20 21 21 19 18 15 13 14 14 14 15 15 14 13
4 5 9 10 4 2 3 6 6 7 8 8 10 10 14 14 11 8 6 4 2 4 6 6 8 7 7 9 8 6 9 11 11 13 15 15 16 15 14 16 15 13 13 13 14 16 16 16 16 15 15 15 14 14 14 13 13 12 12 14 19 21 22 22 21 21 21 21 21 21 19 20 20 21 22 23 23 23 22 18 15 15 16 17 17 15 13
5 6 8 10 5 1 1 1 2 4 6 2 8 10 12 13 10 7 5 4 4 3 2 3 7 9 10 12 10 5 9 14 15 14 15 17 17 15 14 14 12 10 11 10 9 11 12 11 11 12 13 14 14 13 13 13 13 13 11 11 13 15 16 18 20 22 23 23 23 22 20 20 21 21 22 22 22 25 26 24 20 17 17 18 18 18 17
3 6 6 7 3 2 4 2 5 4 9 9 5 12 13 13 11 8 6 6 5 4 3 7 10 11 13 16 14 8 8 14 18 16 16 18 18 16 14 13 12 11 11 10 9 9 8 7 6 6 8 9 9 9 10 11 11 11 11 10 11 12 13 14 16 19 21 22 23 23 23 24 24 23 22 22 22 23 25 25 24 21 19 18 19 19 18
1 2 4 5 1 4 5 1 6 8 3 7 5 9 12 12 11 10 9 9 12 13 8 4 10 16 19 19 16 13 12 14 17 17 17 18 18 17 15 14 15 15 14 13 14 14 14 11 8 7 7 6 5 5 6 6 7 7 9 10 10 11 12 13 15 17 18 19 19 19 19 22 24 24 22 22 22 23 23 23 24 24 21 19 20 20 19
0 2 3 2 1 3 6 5 5 7 8 4 5 4 8 11 10 11 12 12 16 19 17 9 2 15 22 19 14 14 13 14 17 17 17 18 18 17 15 14 15 16 17 17 16 15 15 13 12 12 11 9 7 6 5 4 5 5 5 6 6 7 8 10 13 15 17 18 18 18 17 18 21 22 23 24 25 25 24 24 24 24 21 20 20 20 19
3 1 3 3 2 1 3 7 7 7 9 5 6 7 6 9 9 10 12 12 15 18 20 20 13 4 11 11 10 13 15 15 17 17 17 18 18 18 16 15 15 16 16 17 16 15 15 13 11 11 11 11 12 11 9 9 8 8 8 7 4 1 2 3 4 7 9 12 14 16 18 19 19 20 22 24 26 26 26 26 26 26 24 22 21 20 20
4 1 1 1 1 2 2 6 8 7 9 9 2 4 2 7 7 8 10 11 13 13 18 24 20 8 5 7 8 13 15 16 18 18 18 19 17 16 15 15 16 16 16 17 16 16 16 14 13 12 12 12 13 12 10 9 9 9 10 11 10 7 5 5 3 2 1 2 4 8 13 16 18 20 21 22 23 24 24 24 26 27 27 26 24 22 21
5 4 1 1 1 2 3 7 9 9 9 10 8 4 1 7 7 8 8 10 12 14 19 24 16 5 3 6 8 13 16 17 18 18 17 17 17 16 16 15 16 16 16 17 16 15 16 15 14 13 13 13 13 13 12 10 10 10 10 12 12 9 8 8 6 5 6 6 5 3 1 5 10 14 18 19 19 21 22 20 21 23 25 26 26 24 23
4 7 3 1 2 1 6 8 10 12 11 7 3 1 2 6 7 10 9 9 10 12 18 19 11 4 7 9 9 12 15 16 17 16 17 17 16 15 15 15 15 15 15 16 16 15 14 14 14 14 15 15 15 15 14 13 13 12 11 11 11 9 9 9 8 7 7 7 7 8 7 4 1 4 8 10 9 10 13 14 15 17 20 22 25 26 25
1 3 3 2 3 2 9 10 8 12 9 3 2 4 5 5 7 10 11 10 9 9 11 14 13 11 9 9 11 11 13 14 15 15 16 16 15 15 14 14 14 14 15 16 16 16 14 14 13 13 15 16 16 15 15 14 12 11 11 11 10 10 11 11 10 9 8 8 9 9 8 7 6 4 2 1 2 2 1 4 8 11 14 17 20 22 24
1 3 4 2 1 5 11 9 4 9 7 3 5 4 6 8 9 8 10 11 10 9 9 9 11 12 10 8 8 10 11 13 13 14 14 13 13 14 14 13 14 14 15 16 16 15 14 14 13 12 12 13 13 13 14 13 11 10 10 11 10 10 11 11 10 9 8 8 8 8 8 8 8 8 8 7 7 6 5 3 3 7 9 11 13 15 18
3 1 4 2 1 6 11 8 6 7 7 7 8 7 7 7 7 7 10 11 10 9 9 9 11 12 10 8 8 7 9 11 11 11 12 12 12 13 13 13 13 13 14 14 14 14 14 13 13 12 10 10 10 10 11 10 9 10 10 11 10 10 10 11 11 11 10 9 9 9 9 9 11 11 9 8 9 9 8 7 4 4 4 5 6 9 10
4 4 4 4 4 7 11 12 11 11 10 10 12 12 8 5 5 7 8 11 11 9 9 11 11 10 8 9 10 9 9 11 11 10 11 11 12 12 12 12 12 12 13 14 13 13 13 13 13 12 11 10 10 9 10 9 8 8 9 9 9 9 9 9 10 11 11 10 10 11 10 9 10 11 9 7 9 11 10 8 6 6 6 5 3 2 3
8 8 8 8 7 9 10 12 13 14 13 13 13 14 10 6 6 7 7 8 11 11 10 9 9 8 7 8 9 9 10 12 11 10 11 10 11 12 12 11 12 12 12 13 13 14 13 12 11 11 11 10 9 9 9 7 6 7 7 7 8 8 8 8 9 8 7 9 11 11 11 10 9 10 9 8 10 11 10 7 7 8 7 8 8 6 3
5 5 7 8 8 8 9 10 12 13 15 14 14 14 12 9 8 10 9 7 8 9 9 7 7 7 7 7 7 8 11 12 9 8 10 11 11 12 11 11 10 10 11 12 12 12 12 10 10 10 11 10 10 9 8 6 4 5 6 6 6 7 7 7 9 10 9 8 8 7 7 7 7 7 7 7 7 8 8 7 7 7 5 5 7 4 1
4 5 8 8 8 8 8 9 11 12 13 14 15 15 14 13 11 11 10 9 9 9 8 6 7 6 5 5 5 6 9 12 10 9 10 12 12 12 11 9 7 8 10 11 9 9 10 9 8 8 8 7 7 6 5 4 4 4 5 6 8 9 9 7 6 7 8 6 5 3 5 5 1 2 1 3 4 3 3 4 6 7 5 5 6 2 2
6 6 7 7 7 7 8 9 10 10 11 12 14 15 15 15 13 11 9 8 7 7 6 4 5 6 5 5 5 4 5 8 10 11 12 12 11 11 12 9 7 7 10 9 6 6 6 6 5 5 5 4 4 4 3 3 3 3 5 8 9 9 8 7 7 6 5 3 3 4 2 2 3 4 4 2 1 2 2 2 4 5 4 5 6 3 2
3 2 3 6 6 5 7 8 8 8 9 10 12 13 14 14 13 11 10 8 6 6 6 4 4 5 6 6 5 4 4 5 8 10 11 11 10 10 11 8 6 7 8 6 3 3 3 3 3 4 3 3 4 4 3 2 1 2 5 7 7 4 2 4 6 6 5 3 4 5 5 5 4 2 2 3 4 2 0 2 4 4 4 5 6 5 4
5 2 4 8 9 6 6 7 7 7 8 9 10 11 12 12 12 11 10 9 8 7 6 6 4 4 6 6 4 3 4 5 7 9 11 12 11 11 11 9 7 8 9 7 4 1 0 1 1 2 2 3 4 4 3 1 0 2 6 8 6 4 6 8 9 8 5 3 6 7 6 3 3 3 4 6 6 5 4 3 4 6 6 7 9 9 9
8 6 4 6 8 8 6 5 6 7 6 7 9 10 10 11 10 9 9 8 7 6 6 6 5 3 5 6 5 5 4 5 6 8 9 10 11 11 11 10 11 11 11 10 8 6 4 3 2 3 3 2 3 3 2 1 1 3 5 6 5 5 6 6 9 10 7 4 5 7 7 4 0 2 5 8 8 6 5 5 5 4 5 7 9 10 11
8 7 5 5 7 8 7 6 6 7 6 7 8 8 8 9 7 7 7 7 6 6 5 5 4 4 3 3 3 4 5 5 7 9 10 10 11 12 12 12 12 13 13 13 12 10 9 7 5 5 5 4 4 3 2 2 3 5 6 6 4 4 3 4 7 9 8 5 4 5 5 5 3 3 2 4 6 6 7 7 7 6 5 5 6 7 8
9 7 5 5 6 6 5 6 6 6 6 6 6 6 7 7 6 5 6 6 5 4 4 4 4 3 2 2 1 1 3 5 8 9 11 12 12 13 13 13 13 13 14 15 14 14 12 10 8 6 6 6 6 5 4 4 4 5 6 5 4 3 3 2 3 2 2 2 3 4 5 5 5 4 2 1 2 5 8 9 9 9 8 8 9 8 7
8 6 5 5 6 5 5 6 7 6 5 5 5 5 5 5 5 4 4 5 5 5 3 2 3 2 1 1 1 1 3 5 8 9 10 11 12 12 13 13 13 14 15 15 17 17 15 12 10 9 8 9 9 8 6 6 6 6 6 6 5 4 3 2 2 2 1 3 3 4 4 5 5 4 1 1 0 3 5 6 7 10 11 10 10 11 10
6 5 3 2 4 6 8 7 6 4 3 3 4 4 4 4 4 4 4 4 4 4 3 2 2 2 2 1 1 2 3 5 7 9 11 11 12 12 13 14 14 15 15 16 18 19 17 15 13 11 11 12 12 10 8 7 7 7 8 6 5 4 4 4 3 2 2 3 3 3 2 3 5 6 3 0 1 1 3 3 3 5 7 9 10 11 13
6 5 4 3 5 7 7 6 4 3 3 3 4 4 4 4 4 4 4 4 4 3 3 2 2 2 1 2 3 3 4 5 6 8 10 12 13 14 16 16 17 17 19 19 19 19 19 18 15 13 15 15 13 11 10 9 8 8 8 7 5 4 4 5 4 2 0 1 2 3 2 1 2 3 2 0 1 1 1 2 1 1 3 8 11 11 11
7 6 5 5 6 6 5 5 5 4 3 3 3 3 4 4 4 4 4 4 3 3 3 2 2 2 2 3 3 4 5 6 6 7 9 10 11 13 15 17 19 21 21 21 21 20 20 19 16 16 17 16 14 14 12 10 10 10 10 9 9 8 6 5 4 3 2 2 2 2 2 2 2 2 1 0 1 1 1 1 2 2 1 3 6 4 4
7 6 6 6 6 6 6 6 5 4 3 2 1 2 2 3 3 3 4 5 4 5 5 4 4 4 4 5 5 5 6 7 8 8 9 10 11 12 14 16 19 21 21 22 23 22 20 18 17 17 18 17 16 16 15 13 12 12 11 10 10 9 6 5 4 3 3 2 2 2 3 2 1 1 1 1 0 1 0 1 2 2 1 1 5 7 8
8 7 7 6 6 6 6 6 4 3 3 2 0 1 1 2 3 4 5 6 6 6 7 7 7 7 6 7 7 7 7 8 9 10 11 11 11 13 14 16 18 20 22 25 26 23 21 19 18 18 18 19 18 18 17 16 15 12 9 9 9 9 8 7 4 3 3 2 2 3 3 2 1 0 1 1 1 1 1 1 1 2 1 4 9 11 12
10 8 8 8 7 7 6 6 5 3 3 2 1 2 2 3 4 5 6 7 7 8 8 8 8 8 8 8 9 9 10 10 10 11 12 13 13 14 15 16 18 20 23 25 25 23 22 21 20 20 20 20 20 20 19 18 16 12 9 7 8 8 9 7 5 4 2 1 2 3 3 2 2 2 1 1 1 1 1 1 1 1 1 5 11 13 14
9 7 7 8 8 6 6 6 5 4 3 3 3 3 4 5 5 6 7 7 8 9 9 9 9 10 10 10 11 11 11 12 12 12 12 12 14 15 16 16 17 18 20 23 24 23 24 24 24 24 23 23 23 22 20 19 18 16 12 9 8 8 9 8 6 4 1 2 4 5 3 0 1 2 3 3 3 3 3 3 3 2 2 5 12 15 15
7 6 6 7 7 5 4 4 3 3 3 3 4 4 4 5 6 7 8 8 9 10 11 11 11 11 12 12 13 13 13 13 14 14 14 14 15 17 18 18 18 17 18 20 21 21 24 26 26 26 25 26 26 24 22 20 19 17 15 13 11 9 8 7 5 3 4 5 6 4 1 1 3 4 4 4 4 4 4 3 4 5 4 5 10 14 16
8 8 8 8 7 6 5 4 2 2 1 2 4 4 5 6 7 7 8 9 10 11 11 12 12 12 13 13 13 13 14 14 14 15 15 15 16 17 17 18 19 19 19 20 20 21 22 23 24 27 29 28 26 25 22 20 18 17 15 14 13 11 10 9 7 7 8 8 6 5 5 7 9 9 7 6 6 4 4 4 5 6 6 5 7 11 14
9 9 9 8 7 6 5 3 2 1 1 3 3 4 5 6 6 7 8 8 9 10 11 11 12 13 13 14 14 14 14 15 15 15 16 16 16 17 18 18 19 19 21 22 21 21 23 23 25 29 32 30 26 24 23 22 20 19 17 16 15 13 11 9 9 8 8 7 7 7 7 7 7 6 7 10 10 6 4 6 6 7 7 7 9 11 12
9 9 9 8 6 5 4 2 1 1 1 3 3 3 5 6 6 7 8 9 9 10 10 11 12 12 13 14 15 15 16 16 16 16 17 17 17 18 19 20 20 21 22 23 21 21 23 25 25 26 28 29 27 25 23 22 21 19 18 18 17 13 10 10 10 10 8 6 8 9 7 5 4 4 6 9 9 5 5 8 11 12 12 9 8 10 10
10 8 7 6 5 4 3 2 1 1 1 2 3 4 5 6 7 8 9 9 10 10 10 11 12 12 13 14 15 15 16 17 17 17 18 18 19 20 21 22 23 23 23 23 22 20 21 25 27 26 25 27 28 26 22 21 21 20 18 16 14 11 10 11 11 11 11 10 10 9 7 5 4 4 6 9 10 8 9 13 17 16 14 10 7 7 8
9 8 6 6 5 4 3 2 2 1 2 3 4 5 6 7 8 9 10 10 11 11 11 12 12 13 14 15 15 16 16 16 17 17 18 18 19 21 23 24 24 25 25 26 25 23 22 25 28 26 23 24 25 24 22 21 21 19 16 13 11 11 12 12 12 12 11 10 10 10 9 6 4 4 5 8 9 9 10 12 12 10 9 8 7 7 7
9 8 6 5 4 3 3 2 2 2 3 4 5 6 7 8 9 10 11 11 11 11 12 12 12 14 15 15 15 16 16 16 16 17 18 18 19 21 22 23 23 23 24 25 26 25 24 24 22 20 20 21 23 22 21 20 19 17 17 15 13 13 13 12 11 10 10 9 9 8 7 6 5 5 6 8 9 8 9 9 8 7 7 7 7 7 7
9 8 6 5 4 3 3 3 2 3 4 5 5 6 8 8 9 10 11 11 12 12 12 12 13 14 15 16 16 17 17 17 17 17 18 19 20 21 23 24 25 25 24 23 23 23 23 20 18 17 19 21 22 22 22 22 21 21 21 20 18 17 16 12 10 10 11 11 10 8 7 7 7 7 8 10 10 8 7 8 8 8 8 7 7 7 8
9 8 6 5 4 4 3 3 3 4 5 6 6 7 8 9 9 10 10 11 11 12 12 13 13 14 14 15 16 17 17 17 18 19 19 20 21 21 21 22 24 24 23 22 21 19 16 15 16 16 17 18 20 20 21 21 22 22 21 19 17 17 15 13 12 11 11 12 13 11 9 9 9 10 10 11 11 9 8 8 8 8 8 8 8 8 7
8 7 5 5 4 4 4 4 4 5 6 7 7 8 8 9 9 9 9 10 11 11 11 12 13 13 14 14 15 16 17 18 18 20 21 21 21 21 21 20 21 21 20 19 16 12 10 13 15 15 15 17 17 17 18 20 20 18 15 12 11 11 10 10 10 9 8 10 13 13 10 8 8 9 10 10 9 9 8 8 8 8 8 7 7 8 7
8 7 6 4 3 3 3 4 4 5 6 7 7 7 7 7 8 8 9 10 10 10 10 10 10 11 12 13 13 14 15 16 16 16 17 18 19 20 20 19 18 18 17 15 12 10 11 14 14 13 13 15 15 14 14 15 14 12 11 10 9 8 8 8 8 7 6 6 8 8 7 6 8 8 8 8 8 8 8 8 9 9 9 7 7 7 7
8 7 6 4 3 3 3 3 4 5 5 6 6 6 6 6 7 8 8 9 9 10 10 10 10 10 10 11 11 12 14 14 14 14 14 14 14 16 16 15 14 14 13 12 13 15 16 16 15 12 11 12 13 12 11 11 11 11 12 11 10 8 7 6 5 5 5 4 5 5 5 6 7 7 7 7 7 7 8 8 8 8 8 7 7 7 7
8 7 5 3 3 3 3 3 4 4 4 5 5 5 5 5 6 6 6 7 8 8 9 9 9 9 9 9 11 12 11 10 10 10 9 9 9 9 9 9 10 10 10 11 12 15 16 16 15 12 9 10 10 9 9 11 12 10 9 8 7 6 5 5 6 6 6 5 5 6 6 6 7 7 7 7 7 8 8 8 7 7 7 7 7 7 8
7 6 4 4 4 3 3 3 3 3 3 4 4 4 4 4 4 4 5 6 6 7 8 8 8 7 7 7 8 8 7 6 5 5 5 5 5 5 5 6 8 9 9 9 9 11 12 12 12 11 13 15 14 11 9 9 10 9 9 9 7 6 6 6 7 7 7 6 6 6 6 6 7 6 6 6 7 7 7 7 7 7 7 6 6 7 7
6 5 5 5 4 3 2 2 3 3 3 3 3 3 3 3 3 4 5 6 6 7 7 8 6 6 5 5 5 4 4 3 3 3 2 3 4 5 6 7 8 10 10 9 8 9 10 10 11 13 18 19 17 15 13 12 9 8 8 8 8 8 10 10 9 8 6 6 6 6 6 6 6 6 6 7 7 7 7 7 7 7 7 7 7 7 6
7 6 6 5 3 3 3 3 2 2 2 3 3 2 2 3 4 4 5 5 5 6 6 6 6 5 5 4 4 4 3 2 1 2 2 3 4 4 4 4 5 6 7 8 9 9 9 9 10 14 17 16 14 13 13 12 10 8 7 7 7 10 12 13 11 8 6 5 5 5 5 6 7 7 7 7 7 7 7 7 6 7 8 8 8 7 7
7 6 5 4 4 4 4 4 3 2 2 2 1 1 1 2 3 4 4 4 4 5 5 5 5 5 5 4 4 4 2 1 1 1 0 1 1 1 3 4 4 3 3 4 7 9 9 9 12 14 15 14 11 9 9 10 11 11 8 6 6 9 10 10 9 8 7 7 6 6 6 6 7 7 8 8 7 8 7 7 7 7 7 7 7 7 7
7 6 6 5 5 5 4 3 2 2 1 1 1 1 1 1 2 3 4 4 4 5 5 5 5 4 4 5 5 5 4 3 2 2 2 3 3 4 4 4 4 5 5 5 6 7 8 10 13 15 15 13 10 7 6 7 8 8 7 6 6 7 8 7 7 8 8 8 6 6 6 7 7 7 8 8 8 7 7 7 7 7 7 7 7 7 7
Wind_Direction
278 274 270 270 270 283 295 307 323 328 319 276 245 225 237 256 251 119 99 114 122 117 123 128 137 152 161 157 154 161 173 161 139 149 162 162 166 170 165 166 173 181 192 202 207 208 201 194 191 191 198 208 208 204 202 199 193 191 194 198 203 206 207 207 210 221 225 220 220 220 214 214 221 229 237 242 242 238 235 232 230 229 230 230 233 241 249
271 281 273 260 257 276 331 355 359 358 351 330 295 248 233 275 312 27 90 100 101 106 121 121 135 152 152 150 150 159 171 165 141 136 144 152 165 173 169 166 166 168 173 180 185 188 195 201 204 208 217 225 219 212 213 211 205 201 202 206 210 210 208 208 210 216 219 219 227 231 225 220 218 219 226 234 240 241 237 234 233 232 231 230 231 241 250
263 289 279 262 270 336 28 23 11 2 355 343 325 303 315 356 352 14 82 98 97 97 107 107 119 142 146 148 152 154 165 170 159 152 149 149 153 160 165 162 157 157 163 168 167 165 174 190 199 208 217 220 219 221 226 225 222 222 222 225 228 226 218 212 213 219 221 221 227 231 232 232 230 228 230 232 234 237 237 232 231 232 233 231 230 235 244
270 281 278 279 310 32 44 34 18 4 358 347 337 346 10 16 3 15 61 86 84 94 110 114 127 148 145 134 122 105 103 92 117 142 146 139 133 134 135 134 137 145 150 155 159 160 167 177 183 192 201 206 208 210 211 214 217 223 227 229 229 229 228 226 224 223 222 222 224 228 233 237 237 237 240 241 241 246 251 246 237 231 227 226 229 235 243
282 283 290 295 287 139 58 34 23 15 15 343 326 358 21 18 10 18 56 91 94 103 122 132 134 128 100 89 81 78 102 94 73 96 121 118 108 107 104 106 116 130 139 150 158 158 161 168 171 177 184 191 197 200 204 210 212 216 222 225 227 228 231 233 232 229 227 226 225 228 232 236 236 237 240 242 241 243 248 253 251 244 234 229 229 231 239
294 317 309 291 284 211 207 67 80 109 109 28 346 15 22 14 21 32 50 97 119 131 159 138 119 110 98 101 108 109 119 120 110 103 108 107 101 98 96 96 98 111 132 149 159 162 167 169 166 170 177 186 197 204 208 214 218 224 230 230 230 231 233 235 235 233 233 233 233 232 232 234 237 237 237 238 236 236 239 242 244 243 239 236 233 228 231
308 332 296 261 279 292 229 168 41 56 137 139 58 38 31 12 14 28 38 56 52 30 66 97 98 105 111 111 119 135 128 119 120 117 108 103 101 97 96 96 91 95 115 126 123 126 137 144 157 174 175 180 195 204 209 217 221 226 231 233 232 233 235 236 236 235 236 238 241 242 241 240 241 241 238 235 234 236 237 236 236 235 234 236 239 236 234
265 308 267 238 258 314 287 20 23 2 53 121 89 41 32 16 7 21 38 41 27 18 23 90 120 114 104 100 110 131 137 123 118 115 107 103 101 96 96 101 100 95 96 101 100 96 96 99 103 109 116 129 160 180 190 203 206 209 220 225 228 234 239 241 242 243 244 245 245 246 244 240 238 238 237 235 233 234 233 231 231 232 232 236 241 244 242
279 272 283 303 333 330 333 348 0 344 346 41 104 73 30 23 23 37 47 42 36 32 19 0 113 116 97 85 91 105 111 114 114 112 107 104 101 98 99 104 109 108 102 99 97 92 92 96 97 101 104 98 99 112 118 125 142 156 179 199 212 222 231 241 247 248 250 250 247 245 243 240 237 236 235 234 234 235 234 230 228 229 232 237 240 243 245
109 187 272 310 315 313 329 324 329 330 325 346 109 117 45 23 33 52 60 49 35 36 35 20 1 53 90 75 77 88 91 99 104 103 103 101 99 102 106 102 103 109 108 103 104 105 103 97 89 91 90 81 83 89 87 87 93 95 97 91 70 71 181 221 251 252 252 251 247 243 240 239 240 240 238 237 238 239 241 239 238 237 237 239 243 245 244
133 121 285 312 295 272 281 306 322 331 322 321 300 168 61 34 43 52 65 68 48 39 50 42 23 16 88 79 75 87 94 100 102 101 102 101 100 103 107 103 100 106 111 110 110 109 105 99 96 97 95 89 89 94 99 101 93 92 107 102 78 60 63 64 55 46 6 294 253 245 242 241 242 244 244 244 242 242 243 243 242 243 242 241 244 245 243
154 137 149 142 179 245 294 309 320 333 331 318 292 235 76 49 65 67 70 85 76 63 65 60 44 20 56 63 83 96 98 101 102 102 102 102 102 103 103 103 101 101 104 106 102 97 94 94 96 101 102 100 96 95 100 101 88 84 104 114 111 108 94 75 65 63 58 55 55 41 308 242 243 246 249 251 246 238 235 234 234 238 241 242 243 243 242
162 141 146 150 153 254 310 308 321 334 324 303 288 230 21 27 62 84 87 91 87 80 83 84 82 53 39 59 94 103 99 101 102 105 108 107 107 108 107 105 102 98 97 99 97 95 95 96 97 101 103 99 94 93 91 88 82 79 82 93 105 111 97 82 78 80 72 66 64 56 47 47 21 249 253 264 265 244 232 227 224 228 233 237 239 240 239
226 133 119 119 130 19 325 308 329 349 330 267 96 27 2 29 69 90 98 102 96 91 103 110 110 104 89 91 100 94 95 103 101 104 114 111 102 103 104 101 101 101 100 99 98 97 97 97 98 105 112 107 99 94 88 80 78 81 80 84 88 84 78 76 77 77 69 68 82 81 61 49 53 57 56 12 12 11 248 222 218 224 231 235 237 239 240
313 132 101 92 117 10 347 326 347 14 10 100 108 57 35 58 79 93 99 106 106 104 118 129 127 128 133 128 106 92 102 111 103 102 113 111 101 101 103 100 100 100 99 97 95 96 99 100 101 105 112 112 107 103 96 86 83 86 83 81 83 84 84 80 73 69 64 64 80 88 75 71 77 74 70 70 71 72 77 98 177 212 223 227 230 234 237
335 87 80 81 128 33 26 33 66 61 60 84 93 86 68 61 74 90 91 97 103 103 110 127 141 149 155 152 134 122 127 127 117 111 114 113 111 110 107 102 99 96 95 94 94 98 104 108 108 103 99 101 103 103 100 97 99 101 95 86 81 79 78 73 63 58 59 63 69 69 62 70 85 88 81 70 67 68 70 78 105 154 174 187 206 219 225
55 89 111 132 116 70 59 65 70 71 77 82 81 83 81 68 73 92 102 106 107 101 98 111 129 138 145 150 147 144 145 142 134 128 129 126 121 113 107 105 102 97 96 96 93 93 94 96 99 99 94 94 95 95 98 101 103 105 107 106 102 95 89 81 66 48 39 40 50 54 47 49 75 90 91 86 78 69 61 57 66 82 84 77 88 170 185
98 106 125 132 107 86 80 76 69 65 68 76 85 89 87 75 80 102 117 112 112 114 107 104 113 111 110 124 126 120 131 142 140 135 137 136 126 116 113 112 109 103 100 97 92 88 85 83 86 89 89 89 87 84 83 83 87 96 96 96 101 104 105 106 101 87 64 48 49 52 45 41 58 80 92 104 104 93 85 76 65 68 68 55 47 52 85
118 115 119 120 110 102 100 90 82 75 69 72 85 94 92 83 87 109 114 99 102 115 110 100 105 103 97 100 92 88 107 127 139 140 137 134 129 124 121 117 114 111 107 102 99 95 90 84 78 78 82 84 80 77 73 63 67 90 90 83 85 90 97 114 129 133 127 103 86 96 104 88 71 76 101 128 134 120 116 117 97 77 68 66 65 59 59
107 105 104 106 102 95 90 84 81 78 73 73 80 91 97 89 82 96 108 104 104 109 105 104 112 115 116 115 101 95 115 132 146 150 140 133 127 125 126 121 117 122 120 114 112 108 103 99 89 80 81 82 77 76 70 46 43 68 84 88 83 70 61 70 99 121 124 105 81 109 147 140 94 340 30 126 134 123 118 131 122 108 109 131 136 158 270
117 120 120 127 127 107 91 84 80 77 77 76 76 83 91 89 82 85 90 90 94 95 94 112 125 126 134 137 131 125 137 153 163 164 157 148 140 140 143 131 114 126 137 137 132 117 104 103 97 80 73 73 69 59 45 31 34 68 93 86 71 56 50 52 62 77 93 98 73 47 11 319 300 296 304 335 63 121 130 146 148 141 153 178 184 199 232
133 118 96 105 119 110 87 83 82 79 80 81 77 76 80 83 86 89 85 78 76 76 88 124 150 145 140 144 151 150 156 180 184 181 181 181 178 176 170 151 125 140 160 168 159 115 85 78 79 66 49 36 29 24 23 20 22 118 119 96 75 67 129 141 123 101 87 109 126 94 44 2 356 5 2 7 13 12 227 219 220 222 223 224 231 243 250
111 97 78 94 108 110 91 80 77 73 75 82 83 80 79 80 83 87 89 89 83 73 83 107 131 158 164 168 176 175 175 189 192 196 204 207 204 201 196 191 193 198 205 217 231 244 348 32 48 34 18 6 353 351 354 350 310 165 150 138 136 180 205 193 174 154 128 141 162 148 127 85 25 34 48 36 18 0 344 307 267 258 255 251 253 260 266
121 131 118 110 121 127 120 103 86 76 76 83 84 81 79 78 80 85 88 91 92 88 87 90 94 122 161 177 193 204 206 202 196 202 212 212 209 210 210 211 218 227 234 240 242 246 257 273 288 295 303 308 307 309 309 273 217 180 159 150 168 221 234 213 199 204 214 225 216 194 175 165 156 27 26 11 357 352 359 358 340 308 283 272 268 269 271
123 126 117 118 130 134 134 126 102 83 79 84 85 83 80 75 79 92 96 92 93 96 94 94 94 92 103 139 183 203 210 215 214 215 219 220 218 217 216 216 220 229 237 242 243 244 249 258 268 275 281 282 274 261 241 215 199 187 174 166 179 225 239 203 200 217 233 241 233 217 199 184 159 119 59 356 343 351 2 3 360 353 343 327 308 294 288
122 125 125 135 145 145 143 136 116 91 78 80 84 87 85 76 71 87 103 104 99 88 82 90 95 84 79 90 111 231 217 219 226 226 225 224 223 222 221 218 217 221 230 241 248 249 248 251 253 253 257 261 259 249 227 203 193 187 185 186 193 214 232 211 184 197 226 220 215 222 222 203 163 117 90 263 300 349 353 355 357 353 352 352 342 330 322
131 135 143 163 171 156 131 125 122 103 78 74 77 74 71 70 70 80 97 104 98 85 74 85 82 54 32 56 2 291 249 243 251 251 241 230 225 225 225 222 221 223 228 235 243 245 244 242 241 238 235 236 240 238 220 195 183 176 173 174 177 185 194 171 144 156 226 245 245 249 242 217 186 151 126 239 113 9 341 336 344 343 340 340 341 339 339
134 145 157 173 156 130 114 116 127 118 85 70 69 57 47 53 66 71 77 85 84 74 70 83 81 43 3 356 323 289 270 261 261 261 257 249 242 237 230 223 222 225 226 229 237 240 238 236 234 230 227 228 230 228 215 195 183 177 170 163 157 156 164 167 177 218 261 286 294 297 295 245 209 192 186 213 96 49 339 329 340 338 327 324 332 340 339
138 143 139 116 116 121 120 123 129 125 108 92 79 61 51 52 53 49 54 62 60 44 33 43 47 24 345 322 306 292 283 274 266 264 263 259 253 247 240 233 229 228 227 228 231 231 231 233 231 224 223 227 227 219 209 200 190 179 161 147 150 166 170 163 164 186 228 10 333 318 325 298 210 183 150 93 204 178 1 349 336 301 311 320 331 343 340
144 143 142 134 136 145 150 147 140 136 123 103 79 57 45 40 35 27 28 29 17 354 341 343 345 331 320 315 304 287 279 276 272 271 272 266 255 248 244 241 238 232 227 227 227 225 225 230 226 216 219 227 224 214 208 201 194 189 176 168 180 194 187 161 154 160 148 97 51 29 41 55 58 64 67 343 304 288 242 277 309 321 349 325 319 320 303
154 157 155 148 153 163 164 157 153 151 141 119 77 48 31 18 9 2 351 342 332 322 314 309 302 296 298 303 300 291 288 283 272 267 269 268 260 255 250 245 241 235 229 229 230 224 222 224 219 212 219 226 220 209 203 198 199 204 199 191 194 197 187 173 172 160 139 128 108 85 85 87 81 34 281 198 92 349 276 305 322 313 140 250 262 252 255
164 167 166 167 177 182 172 162 166 174 170 165 220 350 1 344 330 325 324 322 318 310 302 295 291 288 287 290 289 288 288 287 282 277 272 265 259 258 254 247 244 241 236 233 231 225 219 219 217 216 222 224 215 206 205 204 202 203 202 202 205 204 197 195 197 184 167 156 133 119 117 129 149 135 334 296 205 230 258 311 291 253 224 255 262 264 269
175 179 182 184 186 190 186 179 180 189 193 191 235 278 294 302 305 308 312 311 308 304 298 291 289 289 288 287 286 284 283 282 282 281 277 272 268 265 259 253 253 252 247 244 241 233 226 224 222 220 222 222 215 208 207 207 201 191 188 204 219 218 212 207 203 204 207 139 140 172 184 193 193 185 186 222 250 251 240 247 269 278 278 269 270 275 279
183 183 184 184 184 189 196 192 191 198 212 230 258 275 287 296 299 301 305 304 300 298 296 292 289 288 286 285 283 282 281 279 278 277 277 276 276 273 266 259 256 255 254 254 253 246 238 233 227 222 221 224 220 211 206 209 207 195 185 195 216 231 239 235 224 217 193 151 189 218 237 310 263 234 219 208 218 229 228 235 252 253 250 277 283 287 288
174 159 155 164 168 168 169 173 180 190 212 251 279 290 298 304 302 300 299 297 293 290 290 289 287 285 284 283 281 278 277 277 278 278 278 275 275 275 272 266 260 259 259 261 260 254 244 234 226 222 223 226 224 216 208 210 212 201 188 189 200 218 239 242 225 195 175 182 200 223 238 203 212 212 204 210 228 243 252 269 278 269 262 283 293 295 297
160 150 147 150 150 151 152 156 160 167 206 263 284 293 299 301 300 298 297 292 289 287 287 286 284 283 281 279 279 279 278 278 277 278 278 276 274 274 274 272 271 270 266 262 262 260 252 241 232 228 224 220 216 212 207 204 203 198 193 193 196 201 213 221 216 207 204 205 203 196 207 230 232 221 222 251 279 282 269 275 285 281 277 278 281 288 298
157 153 150 148 147 148 149 154 168 189 252 281 288 295 299 299 300 299 297 293 289 288 286 285 285 283 281 280 279 278 279 279 278 278 278 278 277 275 273 272 272 270 266 263 263 262 257 250 241 230 222 213 207 205 204 202 199 197 200 207 206 201 202 214 223 221 219 230 247 244 239 250 256 255 273 295 306 306 278 269 270 267 266 267 267 273 287
151 150 150 149 150 151 147 153 188 235 282 293 292 297 302 304 304 301 297 295 293 291 289 288 287 285 283 283 282 280 280 280 281 281 281 281 282 280 276 273 271 269 268 269 268 263 258 255 249 236 224 215 210 207 208 212 216 218 225 232 227 213 205 216 229 229 222 231 254 259 253 243 246 267 287 291 290 288 279 270 259 244 234 236 257 274 280
151 153 153 149 152 157 153 155 185 220 255 277 292 303 306 308 307 303 300 298 295 293 293 292 290 289 288 287 284 282 282 282 282 284 285 284 283 281 276 272 271 270 270 270 268 264 259 258 253 242 227 217 214 214 219 227 230 229 231 235 233 222 215 222 231 232 223 217 223 230 226 216 221 245 266 269 266 263 266 270 268 258 243 234 251 275 274
155 154 153 152 159 163 161 172 202 226 256 283 296 302 304 307 309 306 303 299 296 296 296 293 290 287 287 286 285 285 285 284 283 285 286 287 286 284 280 277 275 274 273 272 271 269 269 266 258 247 231 219 219 223 227 229 227 219 211 212 217 219 219 221 226 228 228 228 230 231 228 229 238 247 256 261 261 257 258 266 273 271 260 255 263 270 265
158 156 155 160 170 176 185 204 226 249 274 288 297 301 304 307 307 304 301 300 298 296 295 292 288 286 285 286 287 287 286 286 285 284 286 289 290 287 284 282 281 281 281 279 274 272 273 271 262 246 229 222 224 226 225 223 219 209 199 196 200 208 215 219 223 228 229 231 234 236 237 242 252 257 256 255 254 254 257 262 265 266 265 267 268 264 261
163 163 165 178 201 214 218 227 252 276 287 296 302 302 301 299 298 298 299 300 297 295 291 288 286 286 285 286 287 288 288 289 288 286 286 289 289 287 283 281 281 284 287 286 283 280 276 265 248 229 219 219 222 222 220 216 212 207 203 201 199 201 204 205 210 224 230 226 223 233 247 246 244 253 262 261 259 258 258 256 257 260 263 264 262 259 256
169 167 171 191 216 228 240 256 271 280 290 298 300 297 297 297 298 299 301 301 300 298 295 292 291 290 290 289 288 289 289 287 284 282 282 281 280 279 279 281 284 287 287 286 286 286 274 248 228 215 211 217 222 222 217 212 210 212 217 220 216 213 214 212 209 216 224 219 214 224 244 250 245 245 251 253 254 256 257 257 258 259 259 258 258 259 257
169 168 175 196 213 224 249 273 283 287 290 293 292 292 296 299 300 300 301 301 300 298 295 294 294 293 293 293 294 294 292 288 283 281 282 281 279 277 277 280 285 287 286 283 283 278 248 221 214 212 214 222 228 226 219 215 213 213 219 228 226 219 218 214 205 204 215 222 221 223 229 239 241 239 239 241 244 248 253 259 260 258 257 259 258 255 256
166 166 173 188 210 235 262 280 289 290 289 289 291 295 297 300 304 307 308 306 305 302 298 297 297 295 295 295 295 295 295 294 291 287 282 280 279 280 281 279 276 274 271 266 257 236 213 208 212 220 227 230 230 224 218 215 209 197 191 198 202 196 189 191 194 195 203 222 229 222 216 224 236 239 238 240 245 247 250 254 254 251 252 256 257 257 260
167 172 179 192 227 260 273 281 286 287 288 289 293 298 301 306 312 315 315 313 312 310 306 303 303 303 301 300 299 299 299 298 294 287 281 277 275 276 274 271 268 269 267 253 229 211 205 206 214 225 232 226 218 210 198 185 173 167 172 182 192 193 186 189 203 210 208 216 227 225 218 225 238 243 243 242 243 247 251 254 253 251 251 252 253 253 253
173 179 183 196 231 257 272 282 284 286 290 294 296 300 311 318 319 322 327 328 325 321 318 314 308 301 297 299 305 310 309 301 290 286 285 283 279 274 268 263 262 266 267 257 235 218 210 210 216 219 207 183 173 169 161 157 159 166 175 183 192 196 188 187 206 223 228 230 234 231 226 226 232 236 240 243 243 245 250 251 251 251 251 251 250 249 248
175 178 185 203 227 240 253 271 279 280 288 296 298 302 312 321 323 325 332 336 336 335 335 333 323 308 302 308 318 320 314 299 288 293 300 298 284 266 250 248 248 242 242 246 239 219 208 210 212 198 170 152 143 142 153 165 171 178 185 193 206 213 205 199 211 224 229 230 229 223 224 230 234 234 235 240 242 243 245 247 247 249 250 250 252 253 252
165 170 186 205 216 212 207 238 264 268 272 291 304 306 309 322 336 340 336 337 343 346 346 347 347 338 327 330 340 342 330 307 291 291 294 287 271 253 239 238 237 230 228 234 231 214 206 208 204 184 166 154 148 150 161 173 180 178 178 189 208 219 214 209 207 205 207 218 226 221 218 226 237 241 241 242 243 246 247 246 245 245 244 241 242 248 254
169 175 184 191 193 197 217 237 241 231 246 276 298 309 312 330 349 352 343 341 351 1 6 5 3 357 349 349 355 359 358 349 317 282 267 271 275 267 247 228 223 224 228 233 228 217 208 201 188 173 165 160 157 156 161 172 181 180 176 187 211 222 221 218 213 208 206 218 231 232 229 228 233 238 241 241 242 245 246 245 245 248 249 245 241 244 253
173 180 190 191 181 181 201 217 215 218 243 263 275 305 1 15 18 9 359 358 12 22 24 21 14 10 13 19 22 21 21 33 75 99 202 244 242 175 157 158 160 165 177 193 201 201 192 176 167 165 165 164 158 144 138 152 169 177 179 190 219 235 235 228 220 219 224 226 226 234 243 243 238 238 240 241 241 242 243 244 244 248 251 251 249 249 252
172 185 194 186 168 161 167 178 192 224 258 258 160 151 117 76 55 23 13 24 36 35 28 26 25 23 22 27 39 55 66 78 102 118 123 124 119 115 118 126 126 117 116 136 162 174 170 159 157 163 170 172 167 156 153 161 170 176 178 185 209 235 241 224 204 206 219 224 221 225 238 244 245 245 245 244 244 245 247 248 249 251 253 255 254 253 253
Height
1494 1490 1488 1482 1480 1480 1475 1474 1478 1476 1468 1464 1462 1463 1463 1460 1467 1483 1487 1485 1492 1495 1492 1494 1497 1498 1499 1501 1503 1505 1506 1507 1507 1506 1506 1507 1510 1512 1512 1513 1515 1519 1523 1526 1529 1531 1533 1535 1536 1537 1539 1541 1543 1545 1546 1547 1548 1549 1551 1552 1554 1555 1557 1559 1561 1562 1563 1566 1568 1569 1571 1572 1574 1576 1578 1579 1580 1581 1581 1581 1582 1583 1584 1584 1584 1584 1584
1495 1490 1488 1482 1480 1484 1484 1483 1485 1486 1484 1479 1470 1460 1457 1461 1466 1471 1477 1485 1492 1492 1490 1491 1494 1496 1498 1498 1500 1503 1504 1506 1507 1508 1509 1509 1509 1512 1514 1514 1517 1520 1524 1527 1530 1531 1533 1535 1536 1537 1539 1540 1542 1544 1545 1546 1548 1548 1550 1551 1552 1554 1556 1557 1559 1560 1561 1563 1565 1567 1568 1569 1571 1573 1574 1576 1578 1579 1580 1581 1581 1582 1582 1583 1583 1583 1583
1499 1494 1488 1484 1483 1486 1491 1493 1491 1490 1492 1491 1483 1471 1465 1471 1475 1473 1476 1486 1492 1491 1489 1490 1494 1497 1498 1497 1498 1500 1503 1506 1507 1509 1511 1512 1513 1515 1516 1516 1518 1522 1524 1527 1528 1529 1531 1532 1534 1535 1537 1539 1541 1542 1543 1545 1546 1547 1548 1550 1551 1553 1554 1555 1556 1557 1559 1561 1562 1564 1565 1567 1568 1570 1571 1573 1574 1576 1578 1579 1580 1580 1581 1581 1582 1583 1583
1506 1498 1491 1490 1489 1490 1495 1500 1499 1499 1502 1505 1501 1490 1483 1486 1485 1482 1486 1494 1497 1493 1491 1493 1496 1497 1498 1498 1499 1501 1504 1506 1509 1510 1512 1514 1515 1517 1518 1518 1519 1521 1524 1524 1525 1526 1527 1529 1531 1533 1535 1536 1538 1539 1540 1542 1543 1545 1546 1547 1549 1551 1552 1554 1555 1556 1557 1559 1560 1562 1564 1565 1566 1567 1568 1570 1573 1575 1576 1577 1577 1578 1578 1579 1580 1581 1583
1510 1499 1495 1495 1496 1505 1513 1507 1503 1505 1507 1512 1510 1499 1491 1490 1489 1491 1498 1502 1499 1496 1495 1496 1496 1497 1499 1501 1503 1505 1506 1507 1510 1513 1515 1515 1516 1517 1518 1519 1519 1521 1522 1523 1524 1524 1525 1527 1529 1530 1532 1534 1535 1537 1539 1540 1542 1544 1545 1546 1547 1548 1550 1551 1553 1554 1556 1557 1558 1560 1562 1562 1563 1564 1565 1567 1569 1572 1574 1576 1578 1577 1577 1577 1578 1579 1580
1513 1503 1500 1502 1510 1526 1527 1507 1499 1506 1510 1514 1515 1506 1497 1494 1493 1495 1499 1497 1495 1496 1497 1498 1498 1500 1502 1504 1507 1510 1510 1509 1510 1514 1516 1517 1517 1519 1520 1520 1520 1521 1522 1524 1525 1525 1525 1527 1528 1529 1531 1532 1534 1536 1538 1539 1541 1543 1544 1545 1546 1547 1548 1549 1551 1552 1553 1554 1556 1559 1560 1560 1561 1561 1563 1565 1566 1568 1571 1574 1577 1577 1576 1576 1576 1576 1577
1514 1509 1510 1521 1529 1530 1518 1501 1497 1503 1506 1509 1512 1507 1502 1500 1499 1499 1501 1501 1501 1500 1499 1500 1502 1504 1505 1506 1509 1513 1516 1515 1513 1515 1518 1518 1519 1521 1522 1522 1522 1522 1523 1524 1525 1526 1527 1528 1529 1531 1531 1532 1534 1536 1537 1539 1540 1541 1543 1544 1544 1545 1546 1547 1548 1549 1551 1552 1554 1556 1557 1558 1558 1559 1561 1563 1564 1566 1568 1570 1573 1574 1574 1574 1574 1575 1575
1515 1514 1518 1530 1532 1520 1508 1502 1502 1502 1502 1504 1510 1514 1511 1506 1504 1504 1505 1508 1508 1506 1506 1507 1507 1507 1508 1510 1513 1516 1518 1518 1518 1519 1520 1520 1521 1522 1524 1524 1524 1524 1524 1525 1526 1527 1528 1530 1531 1532 1532 1533 1534 1536 1537 1538 1540 1540 1542 1543 1543 1544 1545 1546 1547 1547 1549 1550 1551 1553 1554 1555 1556 1558 1559 1560 1562 1564 1565 1568 1569 1570 1571 1572 1573 1574 1573
1517 1520 1522 1523 1524 1521 1516 1512 1508 1506 1505 1503 1510 1522 1519 1510 1508 1509 1510 1512 1511 1510 1512 1514 1512 1509 1509 1513 1517 1519 1520 1520 1520 1521 1522 1522 1523 1524 1526 1527 1527 1527 1527 1528 1528 1529 1530 1532 1533 1533 1534 1535 1535 1536 1538 1539 1540 1541 1541 1542 1542 1543 1544 1544 1545 1546 1547 1548 1549 1550 1552 1553 1554 1555 1557 1558 1560 1561 1563 1565 1566 1567 1568 1570 1571 1571 1572
1516 1523 1528 1526 1529 1533 1528 1519 1510 1507 1506 1502 1504 1519 1523 1514 1510 1511 1512 1515 1516 1514 1514 1516 1517 1515 1514 1518 1522 1522 1522 1522 1522 1523 1523 1524 1524 1526 1528 1529 1529 1529 1530 1530 1531 1532 1533 1534 1535 1536 1536 1536 1537 1539 1540 1541 1541 1541 1542 1542 1542 1542 1543 1543 1544 1545 1546 1546 1547 1548 1549 1551 1552 1553 1554 1555 1557 1558 1561 1562 1563 1564 1565 1566 1568 1569 1569
1513 1523 1533 1536 1538 1535 1525 1518 1510 1505 1507 1503 1501 1517 1528 1520 1512 1513 1512 1515 1519 1519 1518 1518 1520 1523 1524 1526 1526 1525 1525 1526 1526 1526 1526 1526 1527 1529 1530 1531 1531 1531 1532 1532 1534 1535 1536 1537 1538 1538 1539 1539 1540 1541 1542 1542 1542 1542 1542 1543 1544 1544 1544 1544 1544 1545 1545 1545 1546 1546 1547 1548 1550 1550 1551 1552 1553 1555 1557 1558 1559 1560 1561 1563 1564 1565 1566
1509 1522 1533 1534 1533 1527 1518 1514 1511 1507 1508 1504 1505 1523 1533 1522 1515 1517 1515 1514 1519 1522 1522 1522 1525 1529 1531 1530 1530 1529 1528 1528 1529 1529 1529 1529 1531 1532 1533 1533 1534 1534 1534 1535 1535 1536 1537 1538 1539 1540 1541 1541 1542 1542 1543 1543 1543 1542 1543 1543 1544 1545 1545 1545 1545 1546 1545 1546 1546 1546 1546 1547 1547 1547 1548 1549 1550 1552 1553 1555 1556 1557 1557 1559 1561 1562 1564
1505 1518 1529 1529 1526 1521 1515 1513 1512 1508 1507 1508 1516 1530 1532 1522 1519 1521 1519 1519 1521 1522 1524 1526 1528 1530 1532 1532 1533 1532 1531 1531 1531 1531 1532 1532 1534 1535 1535 1536 1536 1537 1537 1537 1537 1537 1538 1539 1540 1541 1542 1542 1543 1543 1544 1544 1544 1544 1544 1544 1544 1545 1544 1544 1545 1546 1546 1546 1546 1546 1546 1546 1546 1547 1547 1548 1549 1550 1551 1553 1553 1554 1554 1556 1557 1559 1561
1503 1511 1523 1529 1527 1520 1513 1512 1511 1507 1510 1518 1526 1528 1525 1522 1522 1523 1523 1524 1524 1524 1526 1527 1527 1529 1532 1534 1534 1534 1534 1533 1533 1534 1535 1536 1536 1537 1538 1538 1539 1539 1539 1539 1539 1540 1540 1541 1541 1541 1542 1542 1543 1544 1544 1544 1545 1545 1545 1545 1545 1545 1545 1545 1546 1546 1546 1547 1547 1548 1548 1548 1548 1548 1549 1549 1548 1549 1550 1551 1551 1551 1552 1553 1554 1556 1557
1506 1512 1526 1538 1535 1522 1512 1511 1512 1512 1516 1523 1525 1523 1523 1524 1524 1524 1525 1525 1525 1526 1527 1527 1528 1530 1532 1535 1535 1535 1535 1535 1535 1536 1537 1538 1539 1539 1540 1541 1541 1541 1541 1541 1541 1542 1542 1542 1541 1542 1542 1543 1543 1544 1544 1545 1546 1546 1546 1546 1547 1546 1546 1547 1547 1547 1548 1548 1548 1549 1549 1549 1550 1550 1550 1550 1550 1549 1550 1550 1550 1551 1551 1552 1553 1554 1555
1512 1521 1531 1535 1530 1521 1515 1514 1516 1518 1520 1522 1522 1523 1524 1525 1524 1526 1527 1527 1527 1528 1527 1528 1529 1531 1532 1534 1535 1535 1536 1536 1537 1539 1540 1540 1541 1541 1542 1542 1543 1543 1543 1543 1543 1543 1543 1542 1542 1542 1543 1544 1544 1545 1545 1546 1547 1547 1547 1548 1548 1548 1548 1548 1549 1549 1549 1549 1550 1550 1550 1551 1551 1551 1551 1551 1551 1551 1551 1551 1551 1552 1552 1553 1553 1553 1554
1513 1519 1524 1522 1519 1519 1519 1518 1518 1520 1520 1522 1524 1525 1525 1525 1525 1527 1527 1528 1529 1529 1529 1530 1531 1532 1534 1534 1535 1536 1537 1537 1539 1540 1541 1542 1542 1542 1543 1543 1544 1544 1544 1544 1544 1544 1544 1543 1544 1543 1543 1545 1546 1546 1546 1547 1548 1548 1548 1548 1549 1549 1549 1550 1550 1551 1551 1551 1551 1551 1551 1552 1552 1552 1553 1553 1553 1553 1553 1553 1553 1553 1553 1554 1554 1554 1555
1512 1515 1517 1517 1518 1520 1520 1520 1521 1521 1521 1523 1525 1525 1525 1525 1526 1526 1527 1528 1529 1529 1530 1531 1532 1534 1535 1535 1535 1537 1538 1539 1540 1542 1542 1543 1543 1543 1543 1544 1545 1545 1545 1545 1545 1545 1545 1545 1545 1545 1545 1545 1546 1547 1548 1548 1549 1549 1549 1549 1549 1550 1550 1551 1551 1552 1553 1553 1553 1553 1553 1553 1553 1553 1554 1554 1554 1554 1555 1555 1555 1555 1555 1556 1556 1556 1556
1515 1519 1518 1516 1518 1520 1520 1521 1523 1523 1524 1525 1526 1527 1527 1526 1526 1527 1528 1528 1530 1531 1532 1533 1533 1534 1535 1535 1536 1537 1538 1540 1541 1542 1543 1543 1543 1544 1544 1545 1545 1546 1545 1546 1546 1546 1546 1546 1546 1547 1546 1546 1547 1548 1549 1549 1550 1550 1550 1550 1550 1551 1551 1552 1552 1553 1553 1554 1554 1554 1554 1554 1553 1554 1554 1554 1554 1554 1554 1555 1555 1556 1556 1557 1557 1557 1557
1516 1519 1518 1518 1520 1521 1521 1522 1524 1524 1526 1527 1527 1528 1528 1528 1528 1528 1528 1529 1530 1531 1532 1533 1534 1535 1536 1536 1537 1538 1539 1540 1541 1542 1543 1543 1543 1544 1545 1545 1546 1546 1545 1545 1546 1546 1547 1547 1547 1548 1548 1547 1548 1549 1549 1550 1550 1550 1551 1551 1551 1552 1552 1553 1553 1553 1554 1554 1554 1554 1554 1554 1553 1553 1553 1554 1554 1554 1555 1555 1555 1556 1556 1556 1557 1557 1557
1516 1518 1518 1519 1521 1522 1523 1524 1526 1526 1527 1528 1529 1529 1530 1529 1530 1530 1530 1531 1531 1532 1533 1534 1534 1535 1537 1537 1538 1540 1541 1541 1542 1543 1543 1544 1544 1544 1544 1545 1546 1546 1545 1546 1546 1547 1548 1548 1548 1548 1549 1549 1549 1549 1550 1551 1551 1551 1551 1551 1552 1553 1554 1554 1555 1555 1555 1555 1554 1554 1554 1553 1553 1553 1553 1554 1554 1555 1555 1555 1555 1556 1556 1556 1556 1556 1557
1520 1522 1520 1520 1523 1524 1525 1526 1527 1528 1529 1530 1530 1531 1531 1531 1532 1532 1532 1532 1532 1533 1534 1534 1534 1535 1537 1538 1540 1541 1541 1542 1543 1543 1544 1544 1545 1545 1545 1545 1545 1545 1546 1546 1547 1548 1548 1549 1549 1549 1549 1549 1549 1549 1550 1551 1551 1551 1551 1552 1553 1554 1554 1554 1555 1555 1555 1555 1554 1554 1553 1553 1553 1553 1553 1553 1554 1554 1554 1555 1555 1556 1556 1556 1556 1556 1557
1521 1523 1521 1522 1524 1526 1526 1527 1528 1529 1530 1531 1532 1532 1533 1533 1533 1534 1534 1534 1534 1535 1535 1536 1536 1537 1537 1538 1539 1540 1541 1542 1543 1543 1544 1544 1545 1545 1546 1546 1546 1546 1547 1547 1547 1548 1549 1549 1549 1549 1549 1549 1549 1549 1550 1551 1551 1551 1551 1551 1552 1553 1552 1553 1554 1553 1553 1553 1553 1553 1553 1553 1553 1553 1553 1553 1554 1554 1554 1554 1554 1555 1555 1555 1555 1556 1556
1519 1521 1522 1523 1524 1525 1527 1529 1530 1530 1531 1532 1533 1534 1534 1534 1534 1535 1535 1536 1536 1537 1537 1537 1538 1538 1538 1539 1540 1540 1541 1542 1542 1543 1543 1544 1544 1545 1546 1546 1546 1547 1547 1547 1548 1548 1549 1549 1550 1549 1549 1549 1548 1549 1550 1550 1550 1551 1551 1551 1552 1551 1551 1552 1553 1553 1552 1552 1552 1553 1553 1553 1553 1553 1553 1554 1554 1554 1554 1554 1554 1554 1554 1554 1555 1555 1555
1520 1522 1523 1524 1525 1526 1528 1529 1530 1531 1532 1532 1533 1534 1535 1535 1536 1536 1536 1537 1537 1538 1538 1538 1539 1539 1539 1540 1540 1541 1541 1541 1542 1542 1543 1543 1544 1544 1545 1546 1546 1546 1547 1547 1548 1548 1548 1549 1549 1549 1549 1549 1548 1548 1549 1549 1550 1550 1550 1551 1551 1551 1551 1551 1552 1552 1552 1552 1552 1552 1552 1552 1553 1554 1554 1554 1554 1554 1554 1554 1554 1554 1554 1554 1554 1554 1554
1521 1522 1523 1524 1525 1526 1527 1528 1530 1531 1532 1532 1534 1535 1535 1535 1536 1536 1537 1537 1538 1538 1538 1539 1539 1539 1539 1540 1540 1540 1541 1541 1541 1541 1542 1542 1543 1543 1544 1545 1545 1546 1546 1546 1547 1547 1548 1548 1548 1548 1548 1548 1548 1548 1548 1549 1549 1550 1550 1550 1550 1550 1550 1550 1551 1551 1551 1551 1551 1551 1551 1552 1552 1553 1554 1554 1554 1554 1554 1553 1553 1553 1553 1554 1553 1553 1553
1521 1523 1524 1524 1525 1526 1527 1528 1529 1531 1532 1533 1534 1534 1535 1535 1536 1536 1537 1537 1538 1539 1539 1539 1539 1539 1539 1540 1540 1540 1540 1540 1540 1540 1541 1541 1542 1542 1543 1544 1544 1545 1546 1545 1546 1546 1547 1547 1547 1547 1547 1547 1547 1547 1547 1548 1549 1549 1549 1550 1550 1550 1550 1550 1550 1550 1550 1550 1550 1550 1551 1551 1552 1552 1553 1554 1554 1555 1554 1554 1553 1553 1553 1553 1553 1553 1553
1522 1523 1524 1524 1524 1526 1527 1529 1530 1531 1532 1533 1533 1534 1535 1535 1536 1536 1536 1537 1538 1539 1539 1539 1539 1539 1539 1539 1539 1540 1540 1540 1540 1540 1540 1540 1540 1541 1541 1542 1543 1544 1544 1544 1545 1545 1545 1546 1546 1546 1546 1546 1546 1546 1547 1547 1548 1548 1549 1549 1550 1550 1550 1550 1550 1550 1550 1550 1550 1550 1550 1551 1551 1552 1552 1553 1554 1555 1555 1555 1554 1554 1553 1552 1553 1553 1552
1522 1523 1524 1525 1525 1526 1528 1529 1530 1531 1532 1532 1533 1534 1534 1535 1536 1536 1536 1537 1538 1538 1539 1539 1539 1539 1539 1539 1539 1539 1539 1539 1539 1539 1539 1539 1539 1539 1540 1541 1541 1542 1542 1543 1543 1543 1544 1544 1545 1545 1545 1545 1545 1546 1546 1546 1547 1548 1548 1549 1550 1550 1550 1550 1550 1550 1550 1550 1550 1550 1550 1550 1551 1551 1552 1553 1553 1554 1555 1555 1555 1554 1554 1553 1553 1552 1551
1522 1523 1524 1525 1526 1527 1528 1529 1530 1531 1531 1532 1533 1533 1534 1535 1535 1536 1537 1537 1538 1538 1538 1538 1539 1539 1539 1539 1539 1539 1539 1538 1538 1538 1538 1538 1538 1538 1539 1539 1540 1539 1540 1541 1541 1541 1542 1542 1543 1544 1544 1544 1544 1545 1545 1546 1546 1547 1547 1548 1548 1548 1549 1549 1549 1549 1550 1550 1550 1550 1550 1550 1551 1551 1552 1553 1553 1554 1554 1554 1554 1554 1555 1555 1554 1552 1551
1522 1523 1524 1525 1526 1527 1528 1529 1530 1530 1531 1532 1533 1533 1534 1535 1535 1536 1537 1537 1537 1537 1538 1538 1538 1538 1538 1538 1538 1538 1538 1537 1537 1537 1537 1537 1536 1536 1537 1537 1537 1537 1538 1539 1540 1540 1541 1541 1542 1542 1542 1543 1543 1544 1544 1545 1545 1545 1546 1546 1547 1547 1548 1548 1549 1549 1549 1550 1550 1550 1550 1550 1551 1552 1552 1552 1553 1553 1554 1554 1554 1554 1555 1555 1554 1552 1551
1522 1523 1524 1525 1526 1526 1527 1528 1530 1530 1531 1532 1532 1533 1534 1534 1535 1535 1536 1536 1536 1537 1537 1537 1537 1537 1537 1537 1537 1537 1537 1536 1536 1535 1535 1535 1535 1535 1535 1536 1536 1536 1536 1537 1537 1538 1539 1540 1541 1541 1541 1541 1541 1542 1543 1543 1544 1544 1545 1545 1546 1546 1547 1547 1547 1548 1549 1549 1549 1550 1550 1550 1551 1551 1551 1552 1552 1552 1553 1553 1554 1554 1554 1553 1552 1551 1551
1521 1523 1524 1524 1525 1526 1527 1528 1529 1530 1531 1531 1532 1533 1534 1534 1534 1535 1535 1535 1536 1536 1536 1536 1536 1536 1536 1536 1535 1535 1535 1535 1534 1534 1534 1533 1533 1533 1534 1534 1534 1535 1535 1535 1535 1535 1536 1537 1538 1539 1539 1539 1539 1540 1541 1541 1542 1544 1544 1545 1545 1545 1546 1546 1547 1547 1547 1548 1549 1549 1549 1550 1550 1550 1551 1551 1551 1551 1552 1552 1552 1553 1553 1552 1550 1550 1550
1521 1522 1523 1524 1525 1526 1526 1527 1528 1530 1530 1531 1532 1532 1533 1533 1533 1534 1534 1534 1534 1534 1534 1534 1534 1534 1534 1534 1534 1534 1534 1533 1533 1533 1532 1532 1532 1531 1531 1532 1532 1532 1532 1532 1533 1533 1534 1534 1535 1536 1536 1537 1537 1538 1539 1539 1540 1542 1543 1544 1545 1545 1545 1545 1546 1546 1547 1548 1548 1548 1548 1548 1548 1549 1549 1550 1549 1550 1550 1550 1550 1551 1551 1550 1549 1548 1548
1521 1522 1522 1523 1525 1525 1526 1527 1528 1529 1530 1531 1531 1532 1532 1532 1533 1533 1533 1533 1533 1533 1533 1533 1533 1533 1532 1532 1532 1532 1532 1531 1531 1531 1531 1531 1530 1529 1529 1529 1530 1530 1530 1530 1530 1531 1531 1532 1533 1534 1534 1534 1534 1536 1536 1537 1537 1539 1540 1542 1543 1544 1544 1544 1544 1545 1546 1546 1546 1546 1547 1547 1547 1547 1547 1547 1548 1548 1548 1549 1549 1549 1550 1550 1548 1546 1546
1520 1521 1522 1523 1524 1525 1526 1527 1527 1528 1529 1530 1530 1530 1531 1531 1531 1531 1531 1531 1531 1531 1531 1531 1531 1531 1531 1530 1530 1530 1530 1530 1529 1529 1529 1528 1528 1528 1527 1527 1527 1528 1527 1527 1528 1529 1529 1529 1531 1531 1531 1530 1531 1533 1534 1535 1535 1535 1537 1538 1539 1542 1543 1543 1543 1543 1544 1544 1544 1545 1545 1544 1545 1546 1546 1546 1546 1547 1547 1548 1549 1549 1549 1550 1549 1546 1545
1520 1521 1521 1522 1523 1524 1525 1525 1526 1526 1527 1528 1528 1529 1529 1529 1529 1529 1529 1529 1530 1530 1529 1529 1529 1528 1528 1528 1528 1528 1528 1527 1527 1527 1526 1526 1526 1526 1525 1525 1525 1525 1525 1525 1526 1527 1526 1526 1527 1527 1526 1527 1528 1530 1532 1533 1534 1533 1534 1534 1536 1538 1540 1541 1541 1542 1542 1542 1543 1543 1542 1543 1543 1544 1545 1545 1545 1545 1545 1547 1547 1547 1547 1548 1548 1546 1545
1519 1520 1521 1521 1522 1523 1524 1524 1525 1526 1527 1527 1528 1528 1528 1528 1528 1528 1527 1528 1528 1527 1527 1527 1527 1526 1526 1526 1526 1526 1526 1526 1525 1525 1524 1524 1524 1523 1523 1523 1523 1523 1522 1522 1524 1524 1522 1522 1523 1523 1523 1525 1526 1527 1529 1531 1533 1532 1532 1533 1534 1536 1538 1539 1540 1540 1541 1541 1542 1541 1541 1541 1542 1543 1544 1545 1544 1543 1544 1544 1544 1544 1544 1544 1545 1545 1544
1518 1519 1519 1520 1521 1522 1523 1523 1524 1525 1526 1526 1526 1526 1526 1526 1526 1526 1526 1526 1526 1526 1525 1525 1525 1524 1524 1524 1524 1524 1523 1523 1523 1523 1522 1522 1521 1521 1520 1520 1520 1520 1520 1520 1521 1522 1520 1520 1519 1519 1519 1521 1523 1525 1527 1528 1529 1530 1531 1531 1532 1534 1536 1537 1539 1539 1539 1540 1540 1539 1539 1540 1540 1541 1542 1542 1542 1543 1543 1542 1541 1541 1542 1542 1543 1543 1543
1517 1518 1519 1520 1521 1521 1522 1523 1524 1524 1525 1525 1525 1525 1525 1525 1524 1524 1524 1524 1524 1523 1523 1523 1522 1522 1523 1522 1522 1522 1522 1521 1521 1521 1520 1520 1519 1517 1517 1516 1517 1517 1517 1517 1518 1518 1519 1519 1518 1517 1517 1518 1520 1522 1523 1524 1525 1527 1529 1530 1531 1533 1535 1536 1537 1538 1538 1538 1538 1537 1537 1538 1538 1539 1540 1541 1541 1542 1542 1541 1540 1540 1541 1541 1541 1541 1542
1516 1517 1518 1520 1520 1521 1522 1522 1523 1523 1523 1524 1524 1524 1524 1523 1523 1523 1522 1522 1522 1521 1521 1521 1521 1521 1521 1520 1520 1520 1519 1519 1519 1519 1518 1518 1516 1515 1514 1514 1514 1514 1514 1514 1514 1515 1516 1517 1518 1517 1516 1516 1518 1520 1521 1522 1524 1526 1527 1528 1530 1531 1532 1534 1535 1536 1536 1536 1536 1536 1536 1537 1537 1538 1538 1539 1539 1539 1539 1539 1539 1539 1540 1540 1540 1540 1540
1515 1516 1517 1519 1520 1521 1521 1521 1522 1522 1522 1522 1522 1522 1522 1522 1522 1521 1521 1520 1520 1519 1519 1519 1519 1519 1519 1519 1518 1518 1517 1517 1517 1517 1516 1515 1514 1513 1512 1511 1511 1511 1511 1511 1512 1513 1513 1515 1517 1517 1515 1514 1515 1517 1519 1520 1522 1523 1524 1525 1526 1528 1530 1531 1533 1533 1534 1534 1535 1535 1535 1536 1537 1537 1537 1538 1538 1537 1537 1538 1538 1538 1538 1538 1538 1538 1538
1515 1515 1517 1518 1519 1520 1521 1521 1521 1521 1521 1521 1521 1521 1521 1520 1520 1520 1519 1519 1519 1518 1518 1518 1517 1517 1517 1517 1516 1516 1515 1515 1514 1514 1513 1513 1512 1511 1510 1510 1509 1509 1509 1509 1509 1510 1510 1512 1514 1516 1515 1513 1514 1516 1517 1518 1519 1521 1522 1524 1525 1527 1529 1530 1530 1531 1531 1531 1532 1534 1534 1535 1535 1535 1535 1536 1536 1536 1536 1536 1536 1536 1536 1536 1536 1536 1536
1514 1515 1516 1517 1518 1519 1520 1520 1520 1520 1520 1520 1520 1520 1519 1519 1519 1518 1518 1518 1517 1517 1517 1516 1516 1515 1515 1514 1514 1513 1513 1512 1511 1511 1510 1509 1509 1508 1508 1508 1508 1508 1507 1507 1507 1507 1508 1510 1512 1513 1513 1513 1514 1516 1517 1518 1518 1519 1522 1524 1525 1527 1528 1528 1529 1529 1529 1530 1530 1531 1532 1533 1534 1534 1533 1534 1534 1535 1535 1535 1535 1535 1534 1534 1534 1534 1534
1513 1514 1515 1516 1517 1518 1518 1519 1519 1519 1519 1519 1519 1518 1518 1518 1518 1517 1517 1516 1516 1515 1515 1514 1514 1513 1513 1512 1512 1511 1510 1510 1509 1508 1507 1507 1506 1506 1506 1506 1506 1506 1506 1506 1506 1506 1507 1508 1509 1510 1511 1513 1514 1515 1516 1517 1517 1519 1521 1524 1525 1526 1527 1527 1528 1528 1528 1528 1528 1529 1530 1531 1532 1532 1532 1532 1533 1533 1533 1533 1533 1532 1532 1532 1532 1532 1532
1512 1513 1514 1515 1516 1517 1517 1517 1518 1518 1518 1518 1518 1517 1517 1517 1517 1516 1515 1515 1514 1514 1513 1513 1512 1512 1511 1510 1509 1509 1508 1508 1507 1506 1505 1505 1505 1504 1503 1504 1504 1504 1504 1505 1505 1505 1506 1507 1508 1509 1510 1511 1513 1514 1515 1516 1517 1519 1521 1523 1525 1525 1525 1526 1526 1527 1527 1528 1528 1528 1529 1530 1531 1531 1530 1531 1531 1532 1532 1531 1531 1530 1530 1530 1530 1531 1531
1511 1512 1513 1514 1515 1516 1516 1516 1517 1517 1517 1517 1517 1516 1516 1516 1515 1515 1515 1514 1513 1513 1512 1511 1511 1510 1509 1508 1508 1507 1506 1506 1505 1504 1504 1504 1503 1503 1503 1503 1503 1503 1503 1503 1504 1505 1505 1506 1507 1508 1509 1510 1512 1513 1514 1516 1518 1519 1521 1523 1523 1524 1524 1525 1526 1527 1527 1527 1527 1528 1528 1529 1530 1530 1530 1530 1530 1530 1530 1530 1529 1529 1529 1528 1529 1529 1529
1511 1511 1512 1513 1514 1515 1515 1516 1516 1516 1516 1516 1516 1515 1515 1515 1514 1514 1514 1513 1513 1512 1511 1511 1509 1509 1508 1507 1507 1506 1505 1504 1504 1504 1503 1503 1502 1502 1502 1502 1502 1503 1503 1503 1504 1505 1506 1506 1507 1508 1508 1509 1510 1512 1514 1516 1518 1519 1521 1522 1523 1523 1524 1524 1525 1526 1526 1526 1526 1527 1527 1528 1528 1528 1528 1528 1528 1528 1528 1528 1528 1527 1527 1527 1527 1527 1527
1510 1510 1512 1513 1513 1514 1514 1515 1515 1515 1515 1515 1515 1515 1514 1514 1514 1513 1513 1513 1512 1512 1511 1510 1509 1508 1507 1507 1506 1505 1504 1504 1504 1503 1503 1502 1502 1502 1502 1502 1503 1503 1503 1504 1505 1505 1506 1506 1507 1508 1508 1508 1509 1510 1513 1515 1517 1519 1520 1522 1523 1522 1522 1522 1523 1523 1524 1525 1525 1525 1526 1527 1527 1527 1527 1527 1527 1527 1527 1526 1526 1526 1525 1525 1526 1526 1526
1508 1510 1511 1512 1512 1512 1513 1514 1514 1514 1514 1514 1514 1514 1514 1513 1513 1513 1513 1512 1512 1511 1511 1510 1509 1508 1507 1506 1506 1505 1504 1504 1504 1503 1503 1502 1502 1502 1502 1503 1503 1503 1503 1504 1505 1505 1506 1506 1507 1508 1509 1509 1510 1510 1511 1513 1516 1518 1520 1521 1521 1520 1520 1521 1522 1522 1523 1524 1524 1524 1525 1526 1526 1526 1526 1526 1526 1526 1525 1525 1524 1524 1524 1524 1524 1525 1525
1508 1509 1510 1510 1511 1511 1512 1512 1513 1513 1513 1513 1513 1513 1513 1513 1513 1513 1512 1512 1512 1511 1511 1510 1509 1508 1507 1507 1506 1506 1505 1504 1504 1504 1504 1503 1503 1503 1503 1503 1504 1504 1504 1504 1504 1505 1505 1506 1507 1508 1509 1510 1511 1512 1512 1513 1515 1517 1519 1520 1520 1519 1519 1520 1522 1522 1523 1523 1524 1524 1524 1525 1525 1525 1525 1524 1524 1524 1523 1523 1523 1523 1523 1523 1523 1523 1524
1507 1508 1509 1509 1510 1511 1511 1512 1512 1512 1513 1513 1513 1513 1513 1513 1513 1513 1512 1512 1511 1511 1511 1511 1510 1509 1508 1507 1507 1506 1506 1506 1506 1505 1505 1505 1505 1504 1504 1504 1504 1505 1505 1505 1505 1506 1506 1507 1508 1509 1510 1511 1513 1514 1515 1515 1515 1517 1518 1519 1520 1519 1519 1519 1520 1521 1521 1522 1522 1523 1523 1524 1524 1523 1523 1523 1522 1522 1522 1522 1522 1522 1522 1522 1522 1522 1522